Regional Weather Roundup
Issued by NWS San Angelo, TX

Home | Current Version | Previous Version | Text Only | Print | Product List | Glossary On
Versions: 1 2 3 4 5 6 7 8 9 10 11 12 13 14 15 16 17 18 19 20 21 22 23 24 25 26 27 28 29 30 31 32 33 34 35 36 37 38 39 40 41 42 43 44 45 46 47 48 49 50
000
ASUS44 KSJT 292310
RWRSJT
WEST CENTRAL TEXAS REGIONAL WEATHER ROUNDUP
NATIONAL WEATHER SERVICE SAN ANGELO TX
600 PM CDT FRI AUG 29 2014

NOTE: "FAIR" INDICATES FEW OR NO CLOUDS BELOW 12,000 FEET WITH NO
SIGNIFICANT WEATHER AND/OR OBSTRUCTIONS TO VISIBILITY.

TXZ049-054-064>066-071>073-076>078-098-099-113-114-127-128-139-140-
154-155-168>170-300000
...LOCATIONS ACROSS WEST CENTRAL TEXAS...

CITY           SKY/WX    TMP DP  RH WIND       PRES   REMARKS
SAN ANGELO     CLOUDY    86  64  47 S6        29.87F
ABILENE        MOSUNNY   87  66  49 E8        29.90R
DYESS AFB      TSTM      75  72  88 N10G31    29.89R
JUNCTION       SUNNY     94  62  34 VRB3      29.83F
SWEETWATER     CLOUDY    78  72  83 E8        29.96R
BROWNWOOD      PTSUNNY   84  68  58 N8        29.86F
COLEMAN        PTCLDY    84  66  55 NE12      29.88F
SONORA         MOSUNNY   93  63  36 SE7       29.90S
OZONA          FAIR      91  59  33 S3        29.89S
BRADY          SUNNY     88  64  45 NE7       29.87S
$$

TEXAS PANHANDLE/OKLAHOMA PANHANDLE

CITY           SKY/WX    TMP DP  RH WIND       PRES   REMARKS
AMARILLO       SUNNY     91  40  16 NE9G16    29.97F
BORGER         MOSUNNY   91  43  18 N9        29.93F
CANADIAN       SUNNY     88  52  28 NW5       29.89S
DALHART        SUNNY     90  37  15 NE12G18   30.00S
DUMAS          CLEAR     87  47  24 N6        29.98R
GUYMON         NOT AVBL
HEREFORD       CLEAR     90  39  16 CALM      29.99F
PAMPA          CLEAR     87  43  21 N5        29.96S
PERRYTON       SUNNY     88  46  23 N7        29.92S
$$

SOUTHERN PANHANDLE/SOUTH PLAINS/ROLLING PLAINS

CITY           SKY/WX    TMP DP  RH WIND       PRES   REMARKS
LUBBOCK        MOSUNNY   88  61  40 E9        29.95S
SNYDER         PTSUNNY   87  67  52 N5        29.93S
CHILDRESS      SUNNY     88  63  43 S7        29.90F
SEMINOLE       CLEAR     88  56  33 E7        29.97R
$$

PERMIAN BASIN

CITY           SKY/WX    TMP DP  RH WIND       PRES   REMARKS
MIDLAND        MOSUNNY   93  61  34 NE12      29.90F
ODESSA         MOSUNNY   93  60  33 NE8       29.92S
WINK           MOSUNNY   94  59  31 E8G17     29.87S
$$

FAR WEST/SOUTHWEST MOUNTAINS/TRANS PECOS

CITY           SKY/WX    TMP DP  RH WIND       PRES   REMARKS
ALPINE         CLEAR     90  43  19 N8        30.06S
DRYDEN           N/A     99  62  29 E9        29.83R
EL PASO        MOSUNNY   94  43  17 E8        29.96F
FORT STOCKTON  SUNNY     95  49  20 NW9       29.90F
GUADALUPE PASS PTSUNNY   83  44  25 NE9       30.11F
MARFA          PTSUNNY   88  45  22 N16       30.06S
PECOS          CLEAR     96  45  17 NW5       29.86F
$$

DALLAS/FORT WORTH METROPLEX

CITY           SKY/WX    TMP DP  RH WIND       PRES   REMARKS
DFW AIRPORT    PTSUNNY   92  64  39 NW7       29.84F
FTW MEACHAM    MOSUNNY   92  63  38 CALM      29.83F
DAL-EXECUTIVE  MOSUNNY   85  69  58 SE13G28   29.86R
GRAND PRAIRIE  NOT AVBL
ADDISON        PTSUNNY   91  63  38 W5        29.85F
MESQUITE       PTCLDY    82  70  65 S13       29.86R
LANCASTER      TSTM      73  69  89 S18G25    29.88F
$$

NORTH CENTRAL TEXAS

CITY           SKY/WX    TMP DP  RH WIND       PRES   REMARKS
SHRMAN/DENISON PTCLDY    90  63  40 SW7       29.88S
GAINESVILLE    PTSUNNY   84  68  59 NE3       29.89F
BRIDGEPORT     CLOUDY    83  65  53 N3        29.89S
DENTON         PTSUNNY   88  64  44 CALM      29.85F
WAXAHACHIE     CLOUDY    79  65  62 E13G25    29.89R
GRANBURY       PTCLDY    92  62  36 N3        29.85F
$$

WESTERN NORTH TEXAS

CITY           SKY/WX    TMP DP  RH WIND       PRES   REMARKS
WICHITA FALLS  MOSUNNY   86  66  51 SW8       29.86F
VERNON         CLEAR     88  67  50 S8        29.88S
BRECKENRIDGE   MOCLDY    78  69  72 E5        29.89S HAZE
COMANCHE         N/A     85  67  55 N12       29.87F
$$

CENTRAL AND SOUTH CENTRAL TEXAS

CITY           SKY/WX    TMP DP  RH WIND       PRES   REMARKS
AUSTIN/BERGSTM PTSUNNY   81  73  76 E15       29.85R THUNDER
WACO           PTSUNNY   91  71  51 E15       29.82F
HILLSBORO      PTCLDY    88  64  43 E14G22    29.85R
TEMPLE         PTSUNNY   82  66  57 SE12      29.86S
KILLEEN-GRAY   PTSUNNY   88  73  62 E20G25    29.85R
FORT HOOD      PTSUNNY   88  68  51 E15G22    29.85S
GEORGETOWN     SUNNY     88  70  55 E10G20    29.85R
LAGO VISTA     FAIR      91  66  43 E12G17    29.86R
SAN MARCOS     SUNNY     82  72  69 CALM      29.85R
NEW BRAUNFELS  CLOUDY    90  68  48 E13       29.81R
RANDOLPH AFB   MOSUNNY   92  66  42 E14       29.81R
SAN ANTONIO    PTSUNNY   94  68  42 E17G25    29.80S
STINSON        LGT RAIN  92  69  47 S9        29.77S
PLEASANTON     NOT AVBL
LA GRANGE      MOSUNNY   90  71  54 NE8       29.83R
GIDDINGS       PTCLDY    80  70  71 NE6G17    29.90R
$$

EAST TEXAS

CITY           SKY/WX    TMP DP  RH WIND       PRES   REMARKS
PARIS          SUNNY     88  70  55 S9        29.88F
CLARKSVILLE    NOT AVBL
TYLER          PTSUNNY   83  70  64 E12G20    29.86F
LONGVIEW       PTSUNNY   94  68  42 SE13      29.85S
PALESTINE      MOCLDY    89  71  56 SE3       29.86S
NACOGDOCHES    PTSUNNY   88  72  58 S8        29.88R
$$

TEXAS HILL COUNTRY AND EDWARDS PLATEAU

CITY           SKY/WX    TMP DP  RH WIND       PRES   REMARKS
LLANO          PTCLDY    97  63  32 E5        29.84F
HORSESHOE BAY  FAIR      95  63  34 E10G18    29.83S
KERRVILLE      SUNNY     92  64  39 SE8       29.84F
FREDERICKSBRG  MOSUNNY   94  59  31 E5        29.85S
ROCKSPRINGS    CLEAR     91  64  40 SE6       29.90S
HONDO          PTSUNNY   95  64  35 SE6       29.80F
UVALDE         PTCLDY    95  68  41 E9        29.79S
DEL RIO        SUNNY     98  64  32 SE7       29.77S
$$

SOUTHEAST TEXAS

CITY           SKY/WX    TMP DP  RH WIND       PRES   REMARKS
COLLEGE STN    LGT RAIN  84  72  67 MISG      29.86R
CALDWELL       LGT RAIN  73  72  94 N5        29.89S
CROCKETT       MOCLDY    90  73  58 SE7       29.90R
BRENHAM        PTSUNNY   88  73  62 SE10      29.85S
HUNTSVILLE     PTSUNNY   86  70  58 VRB3      29.88R
CONROE         PTSUNNY   83  72  69 SE5       29.88R
HOUSTON BUSH   PTSUNNY   84  73  70 SE12      29.86R
HOUSTON HOBBY  CLOUDY    79  74  84 E12G20    29.86R
PERLAND        LGT RAIN  77  74  90 E6        29.88R
WHARTON        CLOUDY    82  75  80 E6        29.83R
$$

THE UPPER TEXAS COAST

CITY           SKY/WX    TMP DP  RH WIND       PRES   REMARKS
ORANGE         DRIZZLE   78  75  90 SE8       29.92R
PORT ARTHUR    RAIN      78  74  87 SE18      29.89R
GALVESTON      LGT RAIN  79  76  90 E9        29.85R
ANGLETON       CLOUDY    80  74  81 E7        29.85R
BAY CITY       CLOUDY    84  76  76 E8        29.83R
$$

TEXAS COASTAL BEND, RIO GRANDE PLAINS DEEP SOUTH TEXAS

CITY           SKY/WX    TMP DP  RH WIND       PRES   REMARKS
VICTORIA       CLOUDY    84  73  69 E9        29.80S
BEEVILLE       FAIR      91  70  49 SE9       29.78F
ROCKPORT       MOSUNNY   86  74  67 E12       29.79F
PORT ARANSAS   MOCLDY    84  74  72 E7        29.79S
PORT LAVACA    MOCLDY    85  76  74 SE15      29.79F
CORPUS CHRISTI PTSUNNY   86  73  65 E13       29.78F
KINGSVILLE NAS CLOUDY    87  75  67 SE12      29.77F
COTULLA        MOSUNNY   97  65  34 SE12      29.75F
LAREDO         MOSUNNY   99  65  32 NE10G20   29.77S
BROWNSVILLE    CLOUDY    87  76  69 E13       29.76R
PORT ISABEL    PTSUNNY   84  76  76 E14       29.77S
HEBBRONVILLE   CLOUDY    88  72  58 E15       29.79S
MCALLEN        LGT RAIN  74  70  87 SE12      29.78S
WESLACO        RAIN      78  69  74 W15G25    29.80R
FALFURRIAS     CLOUDY    83  71  65 E9        29.77S
EDINBURG       LGT RAIN  80  73  78 SE7       29.77R
$$


USA.gov is the U.S. government's official web portal to all federal, state and local government web resources and services.